FW9574 Weather Reports


time (UTC)temp
F
wind
direction
speed
knots
gust
knots
rain 1hr
in
rain 24hr
in
rain mn
in
humidity
%
barometer
mb
20260901112545 56 135 0.0 0.9 0.00 0.00 0.00 95 1012.7
20260901112040 56 86 1.7 1.7 0.00 0.00 0.00 95 1012.7
20260901111539 56 116 1.7 2.6 0.00 0.00 0.00 95 1012.8
20260901111037 56 156 3.5 3.5 0.00 0.00 0.00 95 1012.5
20260901110533 56 150 1.7 2.6 0.00 0.00 0.00 94 1012.6
20260901110029 56 96 0.9 1.7 0.00 0.00 0.00 94 1012.4
20260901105525 56 72 1.7 1.7 0.00 0.00 0.00 94 1012.5
20260901105024 57 110 1.7 1.7 0.00 0.00 0.00 94 1012.7
20260901104521 57 19 0.0 1.7 0.00 0.00 0.00 94 1012.7
20260901104015 57 124 1.7 2.6 0.00 0.00 0.00 94 1012.7
20260901103510 57 162 2.6 3.5 0.00 0.00 0.00 95 1012.6
20260901103006 57 120 0.9 3.5 0.00 0.00 0.00 95 1012.5
20260901102505 57 157 3.5 4.3 0.00 0.00 0.00 95 1012.3
20260901102000 56 119 1.7 2.6 0.00 0.00 0.00 95 1012.2
20260901101455 57 155 2.6 3.5 0.00 0.00 0.00 95 1012.0
20260901100949 57 117 1.7 1.7 0.00 0.00 0.00 95 1012.0
20260901100444 57 105 0.9 1.7 0.00 0.00 0.00 94 1011.9
20260901095943 57 113 1.7 1.7 0.00 0.00 0.00 94 1012.1
20260901095443 57 104 0.9 1.7 0.00 0.00 0.00 94 1012.2
20260901094941 57 138 1.7 2.6 0.00 0.00 0.00 94 1012.2
20260901094435 57 110 0.9 1.7 0.00 0.00 0.00 94 1012.1
20260901093929 57 77 0.0 1.7 0.00 0.00 0.00 94 1012.1
20260901093424 57 137 1.7 2.6 0.00 0.00 0.00 94 1012.1
20260901092919 57 162 2.6 2.6 0.00 0.00 0.00 94 1012.1
20260901092415 57 153 1.7 1.7 0.00 0.00 0.00 93 1012.0
20260901091911 57 100 0.0 0.9 0.00 0.00 0.00 93 1011.9
20260901091410 57 67 0.0 1.7 0.00 0.00 0.00 93 1011.7
20260901090905 57 113 1.7 1.7 0.00 0.00 0.00 93 1011.9
20260901090359 57 117 0.9 1.7 0.00 0.00 0.00 93 1011.9
20260901085855 57 138 1.7 2.6 0.00 0.00 0.00 93 1011.8
20260901085350 57 123 0.9 2.6 0.00 0.00 0.00 93 1011.9
20260901084842 58 149 2.6 3.5 0.00 0.00 0.00 94 1011.8
20260901084337 57 167 1.7 1.7 0.00 0.00 0.00 93 1011.7
20260901083832 57 109 0.9 0.9 0.00 0.00 0.00 93 1011.7
20260901083327 57 113 0.0 0.9 0.00 0.00 0.00 93 1011.8
20260901082825 57 89 0.0 0.0 0.00 0.00 0.00 92 1011.9
20260901082321 58 68 0.0 0.9 0.00 0.00 0.00 92 1011.8
20260901081816 58 122 0.9 0.9 0.00 0.00 0.00 92 1011.9
20260901081315 58 89 0.0 1.7 0.00 0.00 0.00 92 1012.1
20260901080810 58 135 0.9 0.9 0.00 0.00 0.00 92 1012.1
20260901080310 59 106 0.9 1.7 0.00 0.00 0.00 92 1012.1
20260901075804 59 139 0.9 1.7 0.00 0.00 0.00 92 1012.1
20260901075259 58 149 0.9 1.7 0.00 0.00 0.00 92 1012.2
20260901074754 59 112 0.9 1.7 0.00 0.00 0.00 91 1012.4
20260901074249 59 124 0.0 1.7 0.00 0.00 0.00 91 1012.3
20260901073745 59 111 0.9 1.7 0.00 0.00 0.00 90 1011.8
20260901073240 59 135 1.7 1.7 0.00 0.00 0.00 89 1011.9
20260901072736 59 100 1.7 1.7 0.00 0.00 0.00 89 1012.1
20260901072230 60 89 1.7 1.7 0.00 0.00 0.00 89 1012.0
20260901071725 60 117 1.7 2.6 0.00 0.00 0.00 89 1012.0
20260901071225 60 106 1.7 2.6 0.00 0.00 0.00 88 1012.1
20260901070724 60 96 1.7 1.7 0.00 0.00 0.00 88 1012.1
20260901070219 60 116 1.7 1.7 0.00 0.00 0.00 87 1012.1
20260901065718 61 135 0.9 2.6 0.00 0.00 0.00 86 1011.9
20260901065214 61 119 0.9 1.7 0.00 0.00 0.00 85 1012.1
20260901064710 61 68 0.0 1.7 0.00 0.00 0.00 85 1012.1
20260901064206 62 96 1.7 2.6 0.00 0.00 0.00 84 1011.9
20260901063703 62 94 1.7 1.7 0.00 0.00 0.00 84 1012.2
20260901063159 62 89 1.7 1.7 0.00 0.00 0.00 84 1012.3
20260901062654 62 97 0.9 1.7 0.00 0.00 0.00 83 1012.0
20260901062150 62 158 0.0 2.6 0.00 0.00 0.00 84 1012.3
20260901061647 62 129 0.0 1.7 0.00 0.00 0.00 84 1012.4
20260901061146 62 156 0.9 2.6 0.00 0.00 0.00 84 1012.3
20260901060641 62 166 1.7 2.6 0.00 0.00 0.00 85 1012.3
20260901060137 62 154 1.7 3.5 0.00 0.00 0.00 85 1012.2
20260901055632 62 127 1.7 2.6 0.00 0.00 0.00 84 1012.2
20260901055129 62 148 1.7 2.6 0.00 0.00 0.00 83 1012.2
20260901054625 63 207 1.7 1.7 0.00 0.00 0.00 81 1012.0
20260901054121 64 60 0.0 1.7 0.00 0.00 0.00 80 1012.1
20260901053617 65 0 0.9 1.7 0.00 0.00 0.00 78 1012.0
20260901053114 65 160 3.5 3.5 0.00 0.00 0.00 77 1011.9
20260901052612 65 161 2.6 2.6 0.00 0.00 0.00 77 1012.0
20260901052108 65 168 1.7 2.6 0.00 0.00 0.00 76 1011.9
20260901051608 65 172 1.7 2.6 0.00 0.00 0.00 76 1011.9
20260901051106 65 166 1.7 3.5 0.00 0.00 0.00 75 1011.9
20260901050602 65 168 0.9 2.6 0.00 0.00 0.00 74 1011.8
20260901050056 66 159 2.6 2.6 0.00 0.00 0.00 73 1011.7
20260901045551 66 160 1.7 3.5 0.00 0.00 0.00 73 1011.6
20260901045046 66 161 1.7 3.5 0.00 0.00 0.00 72 1011.5
20260901044542 65 159 1.7 3.5 0.00 0.00 0.00 72 1011.6
20260901044038 65 162 1.7 2.6 0.00 0.00 0.00 73 1011.5
20260901043533 64 158 2.6 2.6 0.00 0.00 0.00 73 1011.6
20260901043029 64 164 0.9 2.6 0.00 0.00 0.00 73 1011.5
20260901042528 64 140 1.7 2.6 0.00 0.00 0.00 72 1011.6
20260901042023 65 160 1.7 1.7 0.00 0.00 0.00 72 1011.6
20260901041518 65 158 1.7 3.5 0.00 0.00 0.00 70 1011.5
20260901041013 65 141 1.7 3.5 0.00 0.00 0.00 70 1011.4
20260901040508 65 142 1.7 2.6 0.00 0.00 0.00 71 1011.5
20260901040007 65 137 1.7 2.6 0.00 0.00 0.00 69 1011.4
20260901035505 64 150 2.6 2.6 0.00 0.00 0.00 70 1011.6
20260901035004 64 128 0.9 2.6 0.00 0.00 0.00 71 1011.5
20260901034504 66 131 0.9 1.7 0.00 0.00 0.00 68 1011.5
20260901033959 67 106 0.9 1.7 0.00 0.00 0.00 66 1011.5
20260901033458 67 121 1.7 2.6 0.00 0.00 0.00 64 1011.5
20260901032956 67 158 1.7 2.6 0.00 0.00 0.00 64 1011.3
20260901032451 66 158 2.6 3.5 0.00 0.00 0.00 67 1011.4
20260901031946 67 149 2.6 2.6 0.00 0.00 0.00 65 1011.4
20260901031442 68 148 1.7 1.7 0.00 0.00 0.00 63 1011.5
20260901030942 69 170 0.9 1.7 0.00 0.00 0.00 61 1011.3
20260901030437 69 197 0.9 1.7 0.00 0.00 0.00 59 1011.3
20260901025936 69 157 2.6 2.6 0.00 0.00 0.00 60 1011.3
20260901025432 69 151 2.6 2.6 0.00 0.00 0.00 59 1011.2
20260901024925 69 178 0.9 2.6 0.00 0.00 0.00 59 1011.4
20260901024420 69 143 0.9 2.6 0.00 0.00 0.00 60 1011.1
20260901023919 69 154 0.9 1.7 0.00 0.00 0.00 59 1011.1
20260901023413 70 164 1.7 3.5 0.00 0.00 0.00 59 1011.0
20260901022909 70 139 1.7 2.6 0.00 0.00 0.00 59 1011.1
20260901022405 70 149 1.7 3.5 0.00 0.00 0.00 59 1011.0
20260901021859 70 179 0.9 1.7 0.00 0.00 0.00 58 1011.0
20260901021355 71 147 1.7 1.7 0.00 0.00 0.00 56 1011.1
20260901020849 71 212 0.0 1.7 0.00 0.00 0.00 54 1010.9
20260901020345 71 210 0.0 1.7 0.00 0.00 0.00 53 1011.0
20260901015843 72 158 1.7 2.6 0.00 0.00 0.00 52 1010.8
20260901015340 72 149 1.7 2.6 0.00 0.00 0.00 52 1011.0
20260901014839 72 163 1.7 2.6 0.00 0.00 0.00 52 1010.8
20260901014336 72 251 1.7 3.5 0.00 0.00 0.00 51 1010.6
20260901013831 73 248 0.0 1.7 0.00 0.00 0.00 51 1010.5
20260901013327 73 189 0.0 2.6 0.00 0.00 0.00 50 1010.5
20260901012822 73 242 1.7 1.7 0.00 0.00 0.00 50 1010.4
20260901012317 73 149 0.9 1.7 0.00 0.00 0.00 50 1010.5
20260901011813 73 214 0.9 1.7 0.00 0.00 0.00 49 1010.5
20260901011308 74 157 0.0 2.6 0.00 0.00 0.00 49 1010.4
20260901010802 74 189 0.0 0.9 0.00 0.00 0.00 49 1010.4
20260901010256 75 240 0.0 1.7 0.00 0.00 0.00 48 1010.5
20260901005755 75 176 0.9 1.7 0.00 0.00 0.00 48 1010.4
20260901005250 76 240 2.6 2.6 0.00 0.00 0.00 47 1010.8
20260901004749 77 199 0.9 2.6 0.00 0.00 0.00 46 1010.6
20260901004245 78 205 0.9 2.6 0.00 0.00 0.00 45 1010.8
20260901003744 78 268 1.7 1.7 0.00 0.00 0.00 44 1010.6
20260901003239 79 225 1.7 3.5 0.00 0.00 0.00 42 1010.3
20260901002732 81 192 0.9 3.5 0.00 0.00 0.00 42 1010.2
20260901002227 82 231 3.5 3.5 0.00 0.00 0.00 41 1010.3
20260901001723 83 193 1.7 3.5 0.00 0.00 0.00 42 1010.4
20260901001218 83 255 1.7 3.5 0.00 0.00 0.00 40 1010.3
20260901000713 83 254 1.7 5.2 0.00 0.00 0.00 38 1010.3
20260901000211 84 264 1.7 3.5 0.00 0.00 0.00 38 1010.5
20260831235707 84 256 2.6 3.5 0.00 0.00 0.00 37 1010.4
20260831235203 84 209 1.7 4.3 0.00 0.00 0.00 37 1010.4
20260831234703 84 233 3.5 7.0 0.00 0.00 0.00 36 1010.5
20260831234203 85 255 6.1 9.6 0.00 0.00 0.00 35 1010.3
20260831233659 85 223 4.3 6.1 0.00 0.00 0.00 34 1010.3
20260831233154 85 239 5.2 7.0 0.00 0.00 0.00 34 1010.3
20260831232649 85 227 3.5 8.7 0.00 0.00 0.00 34 1010.3
20260831232145 85 243 3.5 10.4 0.00 0.00 0.00 34 1010.5
20260831231641 85 269 9.6 9.6 0.00 0.00 0.00 33 1010.6
20260831231137 86 273 3.5 5.2 0.00 0.00 0.00 36 1010.4
20260831230632 85 207 2.6 8.7 0.00 0.00 0.00 36 1010.4
20260831230127 85 238 4.3 10.4 0.00 0.00 0.00 36 1010.3
20260831225622 86 228 5.2 11.3 0.00 0.00 0.00 36 1010.4
20260831225117 86 254 3.5 7.8 0.00 0.00 0.00 37 1010.4
20260831224612 86 265 2.6 8.7 0.00 0.00 0.00 36 1010.4
20260831224107 87 261 0.9 5.2 0.00 0.00 0.00 37 1010.1
20260831223602 86 233 11.3 11.3 0.00 0.00 0.00 35 1010.2
20260831223058 87 245 5.2 8.7 0.00 0.00 0.00 34 1010.2
20260831222554 86 227 3.5 7.0 0.00 0.00 0.00 33 1010.2
20260831222054 86 238 6.1 10.4 0.00 0.00 0.00 30 1010.0
20260831221550 86 278 7.0 9.6 0.00 0.00 0.00 31 1010.2
20260831221044 87 254 3.5 9.6 0.00 0.00 0.00 32 1010.2
20260831220539 87 148 1.7 8.7 0.00 0.00 0.00 33 1010.3
20260831220035 86 252 4.3 6.1 0.00 0.00 0.00 31 1010.3
20260831215530 86 238 5.2 10.4 0.00 0.00 0.00 34 1010.2
20260831215026 88 231 3.5 6.1 0.00 0.00 0.00 34 1010.3
20260831214523 87 228 3.5 6.1 0.00 0.00 0.00 35 1010.3
20260831214019 87 217 2.6 7.0 0.00 0.00 0.00 35 1010.5
20260831213515 88 252 5.2 7.8 0.00 0.00 0.00 33 1010.5
20260831213015 86 284 5.2 7.0 0.00 0.00 0.00 36 1010.6
20260831212512 86 238 4.3 8.7 0.00 0.00 0.00 36 1010.4
20260831212007 86 271 9.6 11.3 0.00 0.00 0.00 36 1010.3
20260831211501 87 261 7.8 9.6 0.00 0.00 0.00 34 1010.4
20260831211000 87 173 3.5 7.0 0.00 0.00 0.00 34 1010.4
20260831210455 86 244 2.6 7.8 0.00 0.00 0.00 35 1010.5
20260831205951 86 267 5.2 5.2 0.00 0.00 0.00 37 1010.5
20260831205447 85 283 3.5 9.6 0.00 0.00 0.00 37 1010.6
20260831204942 85 215 2.6 10.4 0.00 0.00 0.00 39 1010.6
20260831204442 85 278 3.5 7.0 0.00 0.00 0.00 39 1010.6
20260831203941 86 235 3.5 7.8 0.00 0.00 0.00 36 1010.9
20260831203436 85 259 2.6 8.7 0.00 0.00 0.00 37 1010.8
20260831202934 86 256 5.2 7.0 0.00 0.00 0.00 33 1010.8
20260831202430 86 241 2.6 5.2 0.00 0.00 0.00 37
20260831201929 85 272 5.2 8.7 0.00 0.00 0.00 38
20260831201427 86 263 3.5 6.1 0.00 0.00 0.00 40
20260831200924 86 262 3.5 6.1 0.00 0.00 0.00 38
20260831200419 85 212 2.6 7.0 0.00 0.00 0.00 41 1011.2
20260831195919 84 261 3.5 6.1 0.00 0.00 0.00 40 1011.2
20260831195415 84 271 4.3 5.2 0.00 0.00 0.00 41 1011.2
20260831194910 85 225 1.7 5.2 0.00 0.00 0.00 42 1011.2
20260831194405 84 269 2.6 7.0 0.00 0.00 0.00 40 1011.2
20260831193905 84 278 5.2 6.1 0.00 0.00 0.00 40 1011.2
20260831193400 83 260 7.8 7.8 0.00 0.00 0.00 41 1011.2
20260831192855 83 272 4.3 7.8 0.00 0.00 0.00 41 1011.2
20260831192350 82 253 2.6 5.2 0.00 0.00 0.00 45 1011.2
20260831191845 83 300 3.5 7.0 0.00 0.00 0.00 43 1011.2
20260831191341 83 303 4.3 8.7 0.00 0.00 0.00 44 1011.2
20260831190837 83 262 3.5 5.2 0.00 0.00 0.00 46 1011.2
20260831190336 81 296 2.6 11.3 0.00 0.00 0.00 47 1011.3
20260831185836 82 271 3.5 5.2 0.00 0.00 0.00 47 1011.1
20260831185332 81 280 3.5 6.1 0.00 0.00 0.00 48
20260831184831 81 255 7.8 11.3 0.00 0.00 0.00 46
20260831184332 80 191 7.0 7.8 0.00 0.00 0.00 48
20260831183827 80 263 4.3 7.8 0.00 0.00 0.00 48
20260831183326 81 292 2.6 6.1 0.00 0.00 0.00 49
20260831182825 81 286 6.1 7.0 0.00 0.00 0.00 50
20260831182321 80 351 1.7 3.5 0.00 0.00 0.00 50
20260831181817 79 255 3.5 5.2 0.00 0.00 0.00 52
20260831181312 80 259 5.2 9.6 0.00 0.00 0.00 50
20260831180807 79 242 5.2 9.6 0.00 0.00 0.00 50
20260831180306 80 293 2.6 5.2 0.00 0.00 0.00 50
20260831175806 79 285 1.7 7.0 0.00 0.00 0.00 52
20260831175305 79 279 2.6 8.7 0.00 0.00 0.00 50
20260831174758 78 285 3.5 4.3 0.00 0.00 0.00 54
20260831174253 79 269 2.6 5.2 0.00 0.00 0.00 53
20260831173752 78 240 1.7 5.2 0.00 0.00 0.00 53
20260831173241 78 269 2.6 5.2 0.00 0.00 0.00 52
20260831172736 78 309 3.5 6.1 0.00 0.00 0.00 52
20260831172231 78 291 1.7 3.5 0.00 0.00 0.00 54
20260831171726 77 243 2.6 4.3 0.00 0.00 0.00 55
20260831171223 77 252 3.5 7.0 0.00 0.00 0.00 57
20260831170719 77 273 4.3 8.7 0.00 0.00 0.00 55
20260831170210 77 20 1.7 4.3 0.00 0.00 0.00 58
20260831165706 78 254 5.2 5.2 0.00 0.00 0.00 56
20260831165202 77 28 1.7 3.5 0.00 0.00 0.00 57
20260831164658 76 275 4.3 6.1 0.00 0.00 0.00 60
20260831164154 76 262 2.6 5.2 0.00 0.00 0.00 60
20260831163649 77 0 1.7 2.6 0.00 0.00 0.00 57
20260831163145 76 271 2.6 5.2 0.00 0.00 0.00 60
20260831162643 77 263 2.6 3.5 0.00 0.00 0.00 63 1011.4
20260831162142 76 74 2.6 3.5 0.00 0.00 0.00 61 1011.4
20260831161638 77 36 1.7 1.7 0.00 0.00 0.00 63 1011.4
20260831161134 75 56 2.6 5.2 0.00 0.00 0.00 64 1011.4
20260831160633 76 49 1.7 4.3 0.00 0.00 0.00 66 1011.4
20260831160128 75 20 1.7 3.5 0.00 0.00 0.00 69 1011.4
20260831155627 75 66 0.9 3.5 0.00 0.00 0.00 70 1011.4
20260831155123 75 348 0.0 2.6 0.00 0.00 0.00 70 1011.4
20260831154619 75 28 0.9 2.6 0.00 0.00 0.00 70 1011.4
20260831154114 74 264 3.5 5.2 0.00 0.00 0.00 71 1011.4
20260831153613 74 247 1.7 4.3 0.00 0.00 0.00 71 1011.4
20260831153110 74 293 0.9 3.5 0.00 0.00 0.00 74 1011.4
20260831152605 73 305 2.6 5.2 0.00 0.00 0.00 73
20260831152100 73 344 0.9 3.5 0.00 0.00 0.00 76
20260831151600 72 4 2.6 4.3 0.00 0.00 0.00 76
20260831151054 73 273 1.7 4.3 0.00 0.00 0.00 76
20260831150549 72 326 1.7 2.6 0.00 0.00 0.00 79
20260831150046 71 261 2.6 3.5 0.00 0.00 0.00 80
20260831145539 71 232 4.3 6.1 0.00 0.00 0.00 80
20260831145036 71 267 1.7 4.3 0.00 0.00 0.00 82
20260831144532 71 247 3.5 3.5 0.00 0.00 0.00 81
20260831144027 70 284 1.7 3.5 0.00 0.00 0.00 83
20260831143522 69 278 2.6 4.3 0.00 0.00 0.00 83
20260831143017 70 273 3.5 3.5 0.00 0.00 0.00 84
20260831142514 69 246 0.0 4.3 0.00 0.00 0.00 85
20260831142009 69 221 1.7 3.5 0.00 0.00 0.00 85 1010.1
20260831141508 69 349 2.6 3.5 0.00 0.00 0.00 86 1010.1
20260831141003 68 226 4.3 5.2 0.00 0.00 0.00 86 1010.1
20260831140502 68 281 0.9 3.5 0.00 0.00 0.00 89 1010.1
20260831140001 67 257 1.7 4.3 0.00 0.00 0.00 90 1010.1
20260831135500 66 42 0.0 2.6 0.00 0.00 0.00 91 1010.1
20260831134955 66 14 1.7 2.6 0.00 0.00 0.00 93 1010.1
20260831134452 66 13 1.7 2.6 0.00 0.00 0.00 93 1010.1
20260831133951 65 242 1.7 2.6 0.00 0.00 0.00 94 1010.1
20260831133446 65 277 1.7 4.3 0.00 0.00 0.00 94 1010.1
20260831132941 65 235 3.5 3.5 0.00 0.00 0.00 95 1010.1
20260831132436 65 274 2.6 3.5 0.00 0.00 0.00 95 1010.1
20260831131936 64 252 1.7 7.0 0.00 0.00 0.00 96 1009.3
20260831131431 64 309 0.0 6.1 0.00 0.00 0.00 96 1009.3
20260831130927 64 19 3.5 6.1 0.00 0.00 0.00 96 1009.3
20260831130422 64 7 0.9 3.5 0.00 0.00 0.00 96 1009.3
20260831125921 64 11 0.9 4.3 0.00 0.00 0.00 96 1009.3
20260831125416 64 33 0.0 5.2 0.00 0.00 0.00 97 1009.3
20260831124912 64 16 5.2 5.2 0.00 0.00 0.00 97 1009.3
20260831124408 64 32 2.6 3.5 0.00 0.00 0.00 97 1009.3
20260831123903 64 19 0.0 4.3 0.00 0.00 0.00 97 1009.3
20260831123401 64 278 1.7 8.7 0.00 0.00 0.00 97 1009.3
20260831122901 64 310 1.7 5.2 0.00 0.00 0.00 97 1009.3
20260831122357 64 2 1.7 4.3 0.00 0.00 0.00 97 1009.2
20260831121852 64 62 1.7 4.3 0.00 0.00 0.00 97 1009.2
20260831121348 64 28 1.7 5.2 0.00 0.00 0.00 97 1009.2
20260831120843 64 306 2.6 11.3 0.00 0.00 0.00 97 1009.0
20260831120338 64 220 2.6 3.5 0.00 0.00 0.00 98 1008.9
20260831115833 64 245 5.2 5.2 0.00 0.00 0.00 98 1008.6
20260831115330 64 320 4.3 6.1 0.00 0.00 0.00 98 1008.7
20260831114828 64 316 0.9 4.3 0.00 0.00 0.00 98 1008.5
20260831114322 64 283 3.5 5.2 0.00 0.00 0.00 98 1008.4
20260831113818 64 1 0.0 3.5 0.00 0.00 0.00 98 1008.4
20260831113318 64 265 3.5 4.3 0.00 0.00 0.00 97 1008.2